This demonstration page uses our WeatherBlox Daily Observations layout. Learn more.

Left ArrowRight Arrow

39.29038, -76.61219

Hourly Observations for August 19, 2015

Temp ( °F °C ) Dew Point ( °F °C ) Humidity (%) Winds ( mph kmh ) Pressure ( in mb ) Visibility ( mi km ) Precip ( " mm )
12:54 am 00:54 undefined 78 25.6 69 20.6 74 74 undefined N/A 29.99 1016 N/A 0.00 0.00
1:54 am 01:54 Cloudy 51 10.5 49 9.4 93 93 undefined N/A 30.16 1021 N/A 0.00 0.00
2:54 am 02:54 Clear 72 22.2 37 2.9 28 28 undefined N/A 29.93 1014 N/A 0.00 0.00
3:54 am 03:54 undefined 77 25 69 20.6 77 77 undefined N/A 29.98 1015 N/A 0.00 0.00
4:54 am 04:54 undefined 77 25 70 21.1 79 79 undefined N/A 29.97 1015 N/A 0.00 0.00
5:54 am 05:54 undefined 77 25 70 21.1 79 79 undefined N/A 29.97 1015 N/A 0.00 0.00
6:54 am 06:54 Cloudy 77 25 70 21.1 79 79 undefined N/A 29.98 1015 N/A 0.00 0.00
7:54 am 07:54 undefined 80 26.7 71 21.7 74 74 undefined N/A 29.99 1016 N/A 0.00 0.00
8:54 am 08:54 Mostly Sunny 80 26.7 71 21.7 74 74 undefined N/A 30.00 1016 N/A 0.00 0.00
9:54 am 09:54 undefined 82 27.8 71 21.7 69 69 undefined N/A 30.01 1016 N/A 0.00 0.00
10:54 am 10:54 Cloudy 84 28.9 70 21.1 63 63 undefined N/A 30.00 1016 N/A 0.00 0.00
11:54 am 11:54 Mostly Cloudy 66 18.9 57 13.9 73 73 undefined N/A 29.96 1015 N/A 0.00 0.00
12:54 pm 12:54 undefined 88 31.1 68 20 52 52 undefined N/A 29.99 1016 N/A 0.00 0.00
1:54 pm 13:54 Partly Cloudy 88 31.1 67 19.4 50 50 undefined N/A 29.98 1015 N/A 0.00 0.00
2:54 pm 14:54 undefined 89 31.7 66 18.9 47 47 undefined N/A 29.95 1014 N/A 0.00 0.00
3:54 pm 15:54 undefined 88 31.1 67 19.4 50 50 undefined N/A 29.94 1014 N/A 0.00 0.00
4:54 pm 16:54 Mostly Sunny 87 30.6 65 18.3 48 48 undefined N/A 29.93 1014 N/A 0.01 0.25
5:54 pm 17:54 undefined 87 30.6 64 17.8 46 46 undefined N/A 29.94 1014 N/A 0.00 0.00
6:54 pm 18:54 undefined 85 29.4 65 18.3 51 51 undefined N/A 29.94 1014 N/A 0.00 0.00
7:54 pm 19:54 undefined 80 26.7 71 21.7 74 74 undefined N/A 29.96 1015 N/A 0.00 0.00
8:54 pm 20:54 Mostly Clear 81 27.2 71 21.7 72 72 undefined N/A 29.96 1015 N/A 0.00 0.00
9:54 pm 21:54 Mostly Cloudy 80 26.7 73 22.8 79 79 undefined N/A 29.98 1015 N/A 0.00 0.00
10:54 pm 22:54 undefined 80 26.7 72 22.2 76 76 undefined N/A 29.97 1015 N/A 0.00 0.00
11:54 pm 23:54 undefined 80 26.7 73 22.8 79 79 undefined N/A 29.98 1015 N/A 0.00 0.00

Powered by AerisWeather